Time,TemperatureF,DewpointF,PressureIn,WindDirection,WindDirectionDegrees,WindSpeedMPH,WindSpeedGustMPH,Humidity,HourlyPrecipIn,Conditions,Clouds,dailyrainin,SoftwareType,DateUTC
2013-07-30 00:00:00,78.8,74.3,29.87,SE,135,0.0,0.0,86,0.00,,---,0.00,VWS V14.00,2013-07-30 05:00:00,
2013-07-30 00:05:00,78.8,74.3,29.89,SE,135,0.0,0.0,86,0.00,,---,0.00,VWS V14.00,2013-07-30 05:05:00,
2013-07-30 00:10:00,78.8,74.6,29.90,SE,135,0.0,0.0,87,0.00,,---,0.00,VWS V14.00,2013-07-30 05:10:00,
2013-07-30 00:15:00,78.5,74.0,29.90,SE,135,0.0,0.0,86,0.00,,---,0.00,VWS V14.00,2013-07-30 05:15:00,
2013-07-30 00:20:00,78.4,73.5,29.90,SE,135,0.0,0.0,85,0.00,,---,0.00,VWS V14.00,2013-07-30 05:20:00,
2013-07-30 00:25:00,78.6,73.7,29.92,SE,135,0.0,0.0,85,0.00,,---,0.00,VWS V14.00,2013-07-30 05:25:00,
2013-07-30 00:30:00,78.2,72.3,29.93,SE,135,0.0,0.0,82,0.00,,---,0.00,VWS V14.00,2013-07-30 05:30:00,
2013-07-30 00:35:00,76.5,71.0,29.94,SE,135,0.0,0.0,83,0.00,,---,0.00,VWS V14.00,2013-07-30 05:35:00,
2013-07-30 00:40:00,74.6,69.8,29.94,SE,135,0.0,0.0,85,0.00,,---,0.00,VWS V14.00,2013-07-30 05:40:00,
2013-07-30 00:45:00,73.2,69.1,29.94,SE,135,0.0,0.0,87,0.00,,---,0.00,VWS V14.00,2013-07-30 05:45:00,
2013-07-30 00:50:00,72.6,68.8,29.94,SE,135,0.0,0.0,88,0.00,,---,0.00,VWS V14.00,2013-07-30 05:50:00,
2013-07-30 00:55:00,72.2,68.8,29.94,SE,135,0.0,0.0,89,0.00,,---,0.00,VWS V14.00,2013-07-30 05:55:00,
2013-07-30 01:00:00,71.9,68.5,29.94,SE,135,0.0,0.0,89,0.00,,---,0.00,VWS V14.00,2013-07-30 06:00:00,
2013-07-30 01:05:00,71.8,68.4,29.94,SE,135,0.0,0.0,89,0.00,,---,0.00,VWS V14.00,2013-07-30 06:05:00,
2013-07-30 01:10:00,71.6,68.2,29.95,SE,135,0.0,0.0,89,0.00,,---,0.00,VWS V14.00,2013-07-30 06:10:00,
2013-07-30 01:15:00,71.5,68.1,29.95,SE,135,0.0,0.0,89,0.00,,---,0.00,VWS V14.00,2013-07-30 06:15:00,
2013-07-30 01:20:00,71.5,68.1,29.95,SE,135,0.0,0.0,89,0.00,,---,0.00,VWS V14.00,2013-07-30 06:20:00,
2013-07-30 01:25:00,71.4,68.3,29.95,SE,135,0.0,0.0,90,0.00,,---,0.00,VWS V14.00,2013-07-30 06:25:00,
2013-07-30 01:30:00,71.4,68.3,29.96,SE,135,0.0,0.0,90,0.00,,---,0.00,VWS V14.00,2013-07-30 06:30:00,
2013-07-30 01:35:00,71.3,68.2,29.97,SE,135,0.0,0.0,90,0.00,,---,0.00,VWS V14.00,2013-07-30 06:35:00,
2013-07-30 01:40:00,71.3,68.2,29.96,SE,135,0.0,0.0,90,0.00,,---,0.00,VWS V14.00,2013-07-30 06:40:00,
2013-07-30 01:45:00,71.1,68.0,29.96,SE,135,0.0,0.0,90,0.00,,---,0.00,VWS V14.00,2013-07-30 06:45:00,
2013-07-30 01:50:00,70.9,67.8,29.95,SE,135,0.0,0.0,90,0.00,,---,0.00,VWS V14.00,2013-07-30 06:50:00,
2013-07-30 01:55:00,70.8,67.7,29.94,SE,135,0.0,0.0,90,0.00,,---,0.00,VWS V14.00,2013-07-30 06:55:00,
2013-07-30 02:00:00,70.7,67.9,29.94,SE,135,0.0,0.0,91,0.00,,---,0.00,VWS V14.00,2013-07-30 07:00:00,
2013-07-30 02:05:00,70.6,67.8,29.93,SE,135,0.0,0.0,91,0.00,,---,0.00,VWS V14.00,2013-07-30 07:05:00,
2013-07-30 02:10:00,70.6,67.8,29.94,SE,135,0.0,0.0,91,0.00,,---,0.00,VWS V14.00,2013-07-30 07:10:00,
2013-07-30 02:15:00,70.6,67.8,29.94,SE,135,0.0,0.0,91,0.00,,---,0.00,VWS V14.00,2013-07-30 07:15:00,
2013-07-30 02:20:00,70.6,67.8,29.94,SE,135,0.0,0.0,91,0.00,,---,0.00,VWS V14.00,2013-07-30 07:20:00,
2013-07-30 02:25:00,70.6,67.8,29.95,SE,135,0.0,0.0,91,0.00,,---,0.00,VWS V14.00,2013-07-30 07:25:00,
2013-07-30 02:30:00,70.6,68.2,29.97,SE,135,0.0,0.0,92,0.00,,---,0.00,VWS V14.00,2013-07-30 07:30:00,
2013-07-30 02:35:00,70.7,68.3,29.97,SE,135,0.0,0.0,92,0.00,,---,0.00,VWS V14.00,2013-07-30 07:35:00,
2013-07-30 02:40:00,70.7,68.3,29.96,SE,135,0.0,0.0,92,0.00,,---,0.00,VWS V14.00,2013-07-30 07:40:00,
2013-07-30 02:45:00,70.7,68.3,29.95,SE,135,0.0,0.0,92,0.00,,---,0.00,VWS V14.00,2013-07-30 07:45:00,
2013-07-30 02:50:00,70.6,68.2,29.95,SE,135,0.0,0.0,92,0.00,,---,0.00,VWS V14.00,2013-07-30 07:50:00,
2013-07-30 02:55:00,70.6,68.2,29.94,SE,135,0.0,0.0,92,0.00,,---,0.00,VWS V14.00,2013-07-30 07:55:00,
2013-07-30 03:00:00,70.5,68.1,29.93,SE,135,0.0,0.0,92,0.00,,---,0.00,VWS V14.00,2013-07-30 08:00:00,
2013-07-30 03:05:00,70.5,68.1,29.92,SE,135,0.0,0.0,92,0.00,,---,0.00,VWS V14.00,2013-07-30 08:05:00,
2013-07-30 03:10:00,70.5,68.1,29.92,SE,135,0.0,0.0,92,0.00,,---,0.00,VWS V14.00,2013-07-30 08:10:00,
2013-07-30 03:15:00,70.5,68.1,29.92,SE,135,0.0,0.0,92,0.00,,---,0.00,VWS V14.00,2013-07-30 08:15:00,
2013-07-30 03:20:00,70.6,68.5,29.92,SE,135,0.0,0.0,93,0.00,,---,0.00,VWS V14.00,2013-07-30 08:20:00,
2013-07-30 03:25:00,70.6,68.5,29.92,SE,135,0.0,0.0,93,0.00,,---,0.00,VWS V14.00,2013-07-30 08:25:00,
2013-07-30 03:30:00,70.6,68.5,29.91,SE,135,0.0,0.0,93,0.00,,---,0.00,VWS V14.00,2013-07-30 08:30:00,
2013-07-30 03:35:00,70.7,68.6,29.90,SE,135,0.0,0.0,93,0.00,,---,0.00,VWS V14.00,2013-07-30 08:35:00,
2013-07-30 03:40:00,70.7,68.6,29.89,SE,135,0.0,0.0,93,0.00,,---,0.00,VWS V14.00,2013-07-30 08:40:00,
2013-07-30 03:45:00,70.7,68.6,29.87,SE,135,0.0,0.0,93,0.00,,---,0.00,VWS V14.00,2013-07-30 08:45:00,
2013-07-30 03:50:00,70.6,68.5,29.86,SE,135,0.0,0.0,93,0.00,,---,0.00,VWS V14.00,2013-07-30 08:50:00,
2013-07-30 03:55:00,70.4,68.3,29.86,SE,135,0.0,0.0,93,0.00,,---,0.00,VWS V14.00,2013-07-30 08:55:00,
2013-07-30 04:00:00,70.3,68.2,29.87,SE,135,0.0,0.0,93,0.00,,---,0.00,VWS V14.00,2013-07-30 09:00:00,
2013-07-30 04:05:00,70.2,68.1,29.88,SE,135,0.0,0.0,93,0.00,,---,0.00,VWS V14.00,2013-07-30 09:05:00,
2013-07-30 04:10:00,70.2,68.1,29.89,SE,135,0.0,0.0,93,0.00,,---,0.00,VWS V14.00,2013-07-30 09:10:00,
2013-07-30 04:15:00,70.2,68.1,29.89,SE,135,0.0,0.0,93,0.00,,---,0.00,VWS V14.00,2013-07-30 09:15:00,
2013-07-30 04:20:00,70.2,68.1,29.89,SE,135,0.0,0.0,93,0.00,,---,0.00,VWS V14.00,2013-07-30 09:20:00,
2013-07-30 04:25:00,70.2,68.1,29.90,SE,135,0.0,0.0,93,0.00,,---,0.00,VWS V14.00,2013-07-30 09:25:00,
2013-07-30 04:30:00,70.2,68.1,29.90,SE,135,0.0,0.0,93,0.00,,---,0.00,VWS V14.00,2013-07-30 09:30:00,
2013-07-30 04:35:00,70.2,68.1,29.90,SE,135,0.0,0.0,93,0.00,,---,0.00,VWS V14.00,2013-07-30 09:35:00,
2013-07-30 04:40:00,70.2,68.4,29.90,SE,135,0.0,0.0,94,0.00,,---,0.00,VWS V14.00,2013-07-30 09:40:00,
2013-07-30 04:45:00,70.2,68.4,29.91,SE,135,0.0,0.0,94,0.00,,---,0.00,VWS V14.00,2013-07-30 09:45:00,
2013-07-30 04:50:00,70.2,68.4,29.90,SE,135,0.0,0.0,94,0.00,,---,0.00,VWS V14.00,2013-07-30 09:50:00,
2013-07-30 04:55:00,70.2,68.4,29.91,SE,135,0.0,0.0,94,0.00,,---,0.00,VWS V14.00,2013-07-30 09:55:00,
2013-07-30 05:00:00,70.3,68.5,29.91,SE,135,0.0,0.0,94,0.00,,---,0.00,VWS V14.00,2013-07-30 10:00:00,
2013-07-30 05:05:00,70.3,68.5,29.90,SE,135,0.0,0.0,94,0.00,,---,0.00,VWS V14.00,2013-07-30 10:05:00,
2013-07-30 05:10:00,70.3,68.5,29.91,SE,135,0.0,0.0,94,0.00,,---,0.00,VWS V14.00,2013-07-30 10:10:00,
2013-07-30 05:15:00,70.3,68.5,29.91,SE,135,0.0,0.0,94,0.00,,---,0.00,VWS V14.00,2013-07-30 10:15:00,
2013-07-30 05:20:00,70.3,68.5,29.91,SE,135,0.0,0.0,94,0.00,,---,0.00,VWS V14.00,2013-07-30 10:20:00,
2013-07-30 05:25:00,70.3,68.5,29.91,SE,135,0.0,0.0,94,0.00,,---,0.00,VWS V14.00,2013-07-30 10:25:00,
2013-07-30 05:30:00,70.4,68.6,29.90,SE,135,0.0,0.0,94,0.00,,---,0.00,VWS V14.00,2013-07-30 10:30:00,
2013-07-30 05:35:00,70.3,68.5,29.90,SE,135,0.0,0.0,94,0.00,,---,0.00,VWS V14.00,2013-07-30 10:35:00,
2013-07-30 05:40:00,70.3,68.5,29.90,SE,135,0.0,0.0,94,0.00,,---,0.00,VWS V14.00,2013-07-30 10:40:00,
2013-07-30 05:45:00,70.3,68.5,29.90,SE,135,0.0,0.0,94,0.00,,---,0.00,VWS V14.00,2013-07-30 10:45:00,
2013-07-30 05:50:00,70.3,68.5,29.90,SE,135,0.0,0.0,94,0.00,,---,0.00,VWS V14.00,2013-07-30 10:50:00,
2013-07-30 05:55:00,70.3,68.5,29.90,SE,135,0.0,0.0,94,0.00,,---,0.00,VWS V14.00,2013-07-30 10:55:00,
2013-07-30 06:00:00,70.4,68.6,29.90,SE,135,0.0,0.0,94,0.00,,---,0.00,VWS V14.00,2013-07-30 11:00:00,
2013-07-30 06:05:00,70.4,68.6,29.90,SE,135,0.0,0.0,94,0.00,,---,0.00,VWS V14.00,2013-07-30 11:05:00,
2013-07-30 06:10:00,70.4,68.6,29.90,SE,135,0.0,0.0,94,0.00,,---,0.00,VWS V14.00,2013-07-30 11:10:00,
2013-07-30 06:15:00,70.4,68.6,29.90,SE,135,0.0,0.0,94,0.00,,---,0.00,VWS V14.00,2013-07-30 11:15:00,
2013-07-30 06:20:00,70.5,68.7,29.90,SE,135,0.0,0.0,94,0.00,,---,0.00,VWS V14.00,2013-07-30 11:20:00,
2013-07-30 06:25:00,70.5,68.7,29.90,SE,135,0.0,0.0,94,0.00,,---,0.00,VWS V14.00,2013-07-30 11:25:00,
2013-07-30 06:30:00,70.5,68.7,29.90,SE,135,0.0,0.0,94,0.00,,---,0.00,VWS V14.00,2013-07-30 11:30:00,
2013-07-30 06:35:00,70.5,68.7,29.91,SE,135,0.0,0.0,94,0.00,,---,0.00,VWS V14.00,2013-07-30 11:35:00,
2013-07-30 06:40:00,70.6,68.8,29.91,SE,135,0.0,0.0,94,0.00,,---,0.00,VWS V14.00,2013-07-30 11:40:00,
2013-07-30 06:45:00,70.6,68.8,29.91,SE,135,0.0,0.0,94,0.00,,---,0.00,VWS V14.00,2013-07-30 11:45:00,
2013-07-30 06:50:00,70.6,68.8,29.91,SE,135,0.0,0.0,94,0.00,,---,0.01,VWS V14.00,2013-07-30 11:50:00,
2013-07-30 06:55:00,70.7,68.9,29.92,SE,135,0.0,0.0,94,0.07,,---,0.02,VWS V14.00,2013-07-30 11:55:00,
2013-07-30 07:00:00,70.7,68.9,29.91,SE,135,0.0,0.0,94,0.07,,---,0.02,VWS V14.00,2013-07-30 12:00:00,
2013-07-30 07:05:00,70.8,69.0,29.92,SE,135,0.0,0.0,94,0.08,,---,0.03,VWS V14.00,2013-07-30 12:05:00,
2013-07-30 07:10:00,70.9,69.1,29.91,SE,135,0.0,0.0,94,0.12,,---,0.04,VWS V14.00,2013-07-30 12:10:00,
2013-07-30 07:15:00,71.0,69.2,29.92,SE,135,0.0,0.0,94,0.12,,---,0.05,VWS V14.00,2013-07-30 12:15:00,
2013-07-30 07:20:00,71.1,69.3,29.92,SE,135,0.0,0.0,94,0.15,,---,0.06,VWS V14.00,2013-07-30 12:20:00,
2013-07-30 07:32:00,71.2,69.4,29.92,SE,135,0.0,0.0,94,0.18,,---,0.08,VWS V14.00,2013-07-30 12:32:00,
2013-07-30 07:37:00,71.5,69.7,29.93,SE,128,0.0,0.0,94,0.20,,---,0.10,VWS V14.00,2013-07-30 12:37:00,
2013-07-30 07:42:00,71.7,69.9,29.93,SE,128,0.0,0.0,94,0.13,,---,0.12,VWS V14.00,2013-07-30 12:42:00,
2013-07-30 07:47:00,71.8,70.0,29.94,SE,128,0.0,0.0,94,0.14,,---,0.13,VWS V14.00,2013-07-30 12:47:00,
2013-07-30 07:52:00,71.9,70.1,29.94,SE,128,0.0,0.0,94,0.20,,---,0.14,VWS V14.00,2013-07-30 12:52:00,
2013-07-30 07:57:00,72.0,70.2,29.93,SE,128,0.0,0.0,94,0.25,,---,0.16,VWS V14.00,2013-07-30 12:57:00,
2013-07-30 08:02:00,72.1,70.3,29.93,SE,128,0.0,0.0,94,0.26,,---,0.18,VWS V14.00,2013-07-30 13:02:00,
2013-07-30 08:07:00,72.1,70.3,29.93,SE,128,0.0,0.0,94,0.16,,---,0.20,VWS V14.00,2013-07-30 13:07:00,
2013-07-30 08:12:00,72.2,70.4,29.93,SE,128,0.0,0.0,94,0.16,,---,0.21,VWS V14.00,2013-07-30 13:12:00,
2013-07-30 08:17:00,72.3,70.5,29.94,SE,128,0.0,0.0,94,0.17,,---,0.23,VWS V14.00,2013-07-30 13:17:00,
2013-07-30 08:22:00,72.4,70.6,29.94,SE,128,0.0,0.0,94,0.21,,---,0.24,VWS V14.00,2013-07-30 13:22:00,
2013-07-30 08:27:00,72.5,70.7,29.94,SE,128,0.0,0.0,94,0.27,,---,0.26,VWS V14.00,2013-07-30 13:27:00,
2013-07-30 08:32:00,72.7,70.9,29.94,SE,128,0.0,0.0,94,0.27,,---,0.28,VWS V14.00,2013-07-30 13:32:00,
2013-07-30 08:37:00,73.2,71.7,29.94,SE,128,0.0,0.0,95,0.26,,---,0.30,VWS V14.00,2013-07-30 13:37:00,
2013-07-30 08:42:00,73.6,72.1,29.94,SE,135,0.0,0.0,95,0.17,,---,0.31,VWS V14.00,2013-07-30 13:42:00,
2013-07-30 08:47:00,73.8,72.0,29.95,SE,136,0.0,0.0,94,0.17,,---,0.33,VWS V14.00,2013-07-30 13:47:00,
2013-07-30 08:52:00,74.0,72.2,29.95,SE,136,0.0,0.0,94,0.17,,---,0.35,VWS V14.00,2013-07-30 13:52:00,
2013-07-30 08:57:00,74.3,72.5,29.94,SE,136,0.0,0.0,94,0.20,,---,0.36,VWS V14.00,2013-07-30 13:57:00,
2013-07-30 09:02:00,74.7,72.9,29.94,SE,136,0.0,0.0,94,0.26,,---,0.38,VWS V14.00,2013-07-30 14:02:00,
2013-07-30 09:07:00,74.8,73.0,29.94,SE,137,0.0,0.0,94,0.26,,---,0.40,VWS V14.00,2013-07-30 14:07:00,
2013-07-30 09:12:00,75.0,72.8,29.95,SE,138,0.0,0.0,93,0.26,,---,0.42,VWS V14.00,2013-07-30 14:12:00,
2013-07-30 09:17:00,75.5,73.3,29.95,SSE,147,0.0,0.0,93,0.17,,---,0.43,VWS V14.00,2013-07-30 14:17:00,
2013-07-30 09:22:00,75.9,73.4,29.95,SSE,161,0.0,0.0,92,0.17,,---,0.45,VWS V14.00,2013-07-30 14:22:00,
2013-07-30 09:27:00,76.4,73.6,29.95,South,184,0.0,0.0,91,0.17,,---,0.47,VWS V14.00,2013-07-30 14:27:00,
2013-07-30 09:32:00,76.9,73.4,29.95,South,180,0.0,0.0,89,0.21,,---,0.48,VWS V14.00,2013-07-30 14:32:00,
2013-07-30 09:37:00,77.4,72.9,29.94,SSW,192,0.0,0.0,86,0.25,,---,0.50,VWS V14.00,2013-07-30 14:37:00,
2013-07-30 09:42:00,78.0,72.4,29.94,South,187,0.0,0.0,83,0.24,,---,0.52,VWS V14.00,2013-07-30 14:42:00,
2013-07-30 09:47:00,78.7,72.4,29.94,South,186,0.0,0.0,81,0.16,,---,0.53,VWS V14.00,2013-07-30 14:47:00,
2013-07-30 09:52:00,79.0,71.9,29.94,SSW,209,0.0,0.0,79,0.15,,---,0.55,VWS V14.00,2013-07-30 14:52:00,
2013-07-30 09:57:00,79.4,72.3,29.94,South,186,0.0,0.0,79,0.24,,---,0.56,VWS V14.00,2013-07-30 14:57:00,
2013-07-30 10:02:00,79.5,71.7,29.94,SSW,207,0.0,0.0,77,0.23,,---,0.58,VWS V14.00,2013-07-30 15:02:00,
2013-07-30 10:07:00,79.5,71.7,29.94,South,176,0.0,0.0,77,0.15,,---,0.59,VWS V14.00,2013-07-30 15:07:00,
2013-07-30 10:08:00,79.5,71.7,29.94,South,176,0.0,0.0,77,0.15,,---,0.59,VWS V14.00,2013-07-30 15:08:00,
2013-07-30 10:13:00,79.4,71.6,29.94,SSW,192,0.0,0.0,77,0.15,,---,0.61,VWS V14.00,2013-07-30 15:13:00,
2013-07-30 10:18:00,79.2,71.4,29.94,SSW,202,0.0,0.0,77,0.21,,---,0.62,VWS V14.00,2013-07-30 15:18:00,
2013-07-30 10:23:00,79.2,72.1,29.94,SSW,202,0.0,0.0,79,0.14,,---,0.64,VWS V14.00,2013-07-30 15:23:00,
2013-07-30 10:28:00,79.6,72.5,29.94,South,182,0.0,0.0,79,0.13,,---,0.65,VWS V14.00,2013-07-30 15:28:00,
2013-07-30 10:33:00,80.1,73.0,29.94,South,173,0.0,0.0,79,0.20,,---,0.66,VWS V14.00,2013-07-30 15:33:00,
2013-07-30 10:37:00,80.7,73.2,29.93,SSE,162,0.0,0.0,78,0.13,,---,0.67,VWS V14.00,2013-07-30 15:37:00,
2013-07-30 10:42:00,81.2,72.9,29.93,South,190,0.0,0.0,76,0.14,,---,0.68,VWS V14.00,2013-07-30 15:42:00,
2013-07-30 10:47:00,81.6,72.9,29.94,South,187,0.0,0.0,75,0.18,,---,0.70,VWS V14.00,2013-07-30 15:47:00,
2013-07-30 10:52:00,82.0,73.3,29.93,South,181,0.0,0.0,75,0.11,,---,0.71,VWS V14.00,2013-07-30 15:52:00,
2013-07-30 10:57:00,82.1,73.0,29.94,SSW,199,0.0,0.0,74,0.18,,---,0.72,VWS V14.00,2013-07-30 15:57:00,
2013-07-30 11:03:00,82.0,72.9,29.94,South,182,0.0,0.0,74,0.11,,---,0.72,VWS V14.00,2013-07-30 16:03:00,
2013-07-30 11:08:00,81.9,72.4,29.94,SW,223,0.0,0.0,73,0.16,,---,0.73,VWS V14.00,2013-07-30 16:08:00,
2013-07-30 11:12:00,82.1,73.0,29.94,SSW,210,0.0,0.0,74,0.10,,---,0.74,VWS V14.00,2013-07-30 16:12:00,
2013-07-30 11:17:00,82.2,72.7,29.94,SW,216,0.0,0.0,73,0.14,,---,0.75,VWS V14.00,2013-07-30 16:17:00,
2013-07-30 11:22:00,82.3,72.8,29.94,South,184,0.0,0.0,73,0.09,,---,0.76,VWS V14.00,2013-07-30 16:22:00,
2013-07-30 11:27:00,82.7,73.6,29.94,SSW,213,0.0,0.0,74,0.13,,---,0.77,VWS V14.00,2013-07-30 16:27:00,
2013-07-30 11:32:00,82.8,73.3,29.94,South,190,0.0,0.0,73,0.09,,---,0.77,VWS V14.00,2013-07-30 16:32:00,
2013-07-30 11:37:00,83.2,74.5,29.95,WSW,237,11.0,12.0,75,0.08,,---,0.78,VWS V14.00,2013-07-30 16:37:00,
2013-07-30 11:42:00,83.4,74.2,29.95,SSW,202,12.0,12.0,74,0.11,,---,0.79,VWS V14.00,2013-07-30 16:42:00,
2013-07-30 11:47:00,83.7,74.1,29.95,SW,224,5.0,10.0,73,0.07,,---,0.79,VWS V14.00,2013-07-30 16:47:00,
2013-07-30 11:52:00,83.9,74.3,29.95,SW,223,5.0,9.0,73,0.05,,---,0.80,VWS V14.00,2013-07-30 16:52:00,
2013-07-30 11:57:00,84.1,74.5,29.95,SW,233,8.0,8.0,73,0.05,,---,0.80,VWS V14.00,2013-07-30 16:57:00,
2013-07-30 12:02:00,84.1,74.5,29.95,SW,234,0.0,0.0,73,0.06,,---,0.81,VWS V14.00,2013-07-30 17:02:00,
2013-07-30 12:07:00,84.3,74.3,29.95,SSW,199,9.0,11.0,72,0.06,,---,0.81,VWS V14.00,2013-07-30 17:07:00,
2013-07-30 12:12:00,84.6,74.2,29.95,SSW,202,6.0,7.0,71,0.05,,---,0.81,VWS V14.00,2013-07-30 17:12:00,
2013-07-30 12:17:00,85.0,75.4,29.95,SSW,195,2.0,7.0,73,0.04,,---,0.81,VWS V14.00,2013-07-30 17:17:00,
2013-07-30 12:22:00,85.2,75.2,29.95,SSW,211,3.0,5.0,72,0.00,,---,0.81,VWS V14.00,2013-07-30 17:22:00,
2013-07-30 12:27:00,85.6,75.1,29.95,SW,216,2.0,2.0,71,0.00,,---,0.81,VWS V14.00,2013-07-30 17:27:00,
2013-07-30 12:32:00,85.7,75.2,29.95,SW,230,2.0,4.0,71,0.00,,---,0.81,VWS V14.00,2013-07-30 17:32:00,
2013-07-30 12:37:00,85.8,74.9,29.95,SW,229,2.0,3.0,70,0.00,,---,0.81,VWS V14.00,2013-07-30 17:37:00,
2013-07-30 12:42:00,86.0,75.1,29.95,SW,229,3.0,3.0,70,0.00,,---,0.81,VWS V14.00,2013-07-30 17:42:00,
2013-07-30 12:47:00,86.5,76.4,29.94,SW,215,2.0,6.0,72,0.00,,---,0.81,VWS V14.00,2013-07-30 17:47:00,
2013-07-30 12:52:00,86.7,74.9,29.94,SW,215,1.0,2.0,68,0.00,,---,0.81,VWS V14.00,2013-07-30 17:52:00,
2013-07-30 12:57:00,86.7,74.9,29.94,SW,216,0.0,4.0,68,0.00,,---,0.81,VWS V14.00,2013-07-30 17:57:00,
2013-07-30 13:02:00,86.9,75.5,29.94,SW,221,2.0,4.0,69,0.00,,---,0.81,VWS V14.00,2013-07-30 18:02:00,
2013-07-30 13:07:00,87.0,75.6,29.94,SW,221,3.0,5.0,69,0.00,,---,0.81,VWS V14.00,2013-07-30 18:07:00,
2013-07-30 13:12:00,87.4,76.4,29.94,SSW,207,3.0,7.0,70,0.00,,---,0.81,VWS V14.00,2013-07-30 18:12:00,
2013-07-30 13:17:00,87.4,75.6,29.93,SSW,203,0.0,0.0,68,0.00,,---,0.81,VWS V14.00,2013-07-30 18:17:00,
2013-07-30 13:22:00,87.4,76.4,29.93,SSW,204,5.0,7.0,70,0.00,,---,0.81,VWS V14.00,2013-07-30 18:22:00,
2013-07-30 13:27:00,87.4,76.0,29.93,SSW,208,4.0,5.0,69,0.00,,---,0.81,VWS V14.00,2013-07-30 18:27:00,
2013-07-30 13:32:00,87.2,75.4,29.93,SSW,211,1.0,2.0,68,0.00,,---,0.81,VWS V14.00,2013-07-30 18:32:00,
2013-07-30 13:37:00,87.1,75.3,29.93,SSW,211,0.0,0.0,68,0.00,,---,0.81,VWS V14.00,2013-07-30 18:37:00,
2013-07-30 13:42:00,87.3,75.9,29.92,SSW,211,3.0,4.0,69,0.00,,---,0.81,VWS V14.00,2013-07-30 18:42:00,
2013-07-30 13:47:00,87.3,75.0,29.92,SW,228,5.0,7.0,67,0.00,,---,0.81,VWS V14.00,2013-07-30 18:47:00,
2013-07-30 13:52:00,87.2,75.4,29.92,WSW,255,3.0,5.0,68,0.00,,---,0.81,VWS V14.00,2013-07-30 18:52:00,
2013-07-30 13:57:00,87.4,75.1,29.92,WSW,255,4.0,6.0,67,0.00,,---,0.81,VWS V14.00,2013-07-30 18:57:00,
2013-07-30 14:02:00,87.9,76.5,29.92,WSW,255,4.0,5.0,69,0.00,,---,0.81,VWS V14.00,2013-07-30 19:02:00,
2013-07-30 14:07:00,88.3,75.1,29.92,WSW,255,4.0,6.0,65,0.00,,---,0.81,VWS V14.00,2013-07-30 19:07:00,
2013-07-30 14:12:00,88.5,75.7,29.92,WSW,255,4.0,4.0,66,0.00,,---,0.81,VWS V14.00,2013-07-30 19:12:00,
2013-07-30 14:17:00,88.7,75.9,29.92,WSW,255,0.0,0.0,66,0.00,,---,0.81,VWS V14.00,2013-07-30 19:17:00,
2013-07-30 14:22:00,89.0,75.7,29.92,WSW,255,4.0,5.0,65,0.00,,---,0.81,VWS V14.00,2013-07-30 19:22:00,
2013-07-30 14:27:00,89.4,76.1,29.92,WSW,255,0.0,0.0,65,0.00,,---,0.81,VWS V14.00,2013-07-30 19:27:00,
2013-07-30 14:32:00,90.0,76.7,29.92,WSW,255,1.0,2.0,65,0.00,,---,0.81,VWS V14.00,2013-07-30 19:32:00,
2013-07-30 14:37:00,90.3,76.0,29.92,WSW,241,6.0,9.0,63,0.00,,---,0.81,VWS V14.00,2013-07-30 19:37:00,
2013-07-30 14:42:00,90.2,75.4,29.92,WSW,241,0.0,1.0,62,0.00,,---,0.81,VWS V14.00,2013-07-30 19:42:00,
2013-07-30 14:47:00,90.2,75.9,29.92,WSW,239,2.0,4.0,63,0.00,,---,0.81,VWS V14.00,2013-07-30 19:47:00,
2013-07-30 14:53:00,90.3,76.0,29.92,WSW,239,0.0,0.0,63,0.00,,---,0.81,VWS V14.00,2013-07-30 19:53:00,
2013-07-30 14:58:00,90.7,77.8,29.92,WSW,238,4.0,4.0,66,0.00,,---,0.81,VWS V14.00,2013-07-30 19:58:00,
2013-07-30 15:03:00,91.0,76.2,29.92,SW,235,7.0,7.0,62,0.00,,---,0.81,VWS V14.00,2013-07-30 20:03:00,
2013-07-30 15:08:00,91.0,77.1,29.92,SW,234,1.0,2.0,64,0.00,,---,0.81,VWS V14.00,2013-07-30 20:08:00,
2013-07-30 15:13:00,91.0,77.6,29.92,SW,233,3.0,3.0,65,0.00,,---,0.81,VWS V14.00,2013-07-30 20:13:00,
2013-07-30 15:18:00,90.8,76.5,29.91,SW,233,2.0,3.0,63,0.00,,---,0.81,VWS V14.00,2013-07-30 20:18:00,
2013-07-30 15:23:00,90.6,76.3,29.91,SW,233,3.0,3.0,63,0.00,,---,0.81,VWS V14.00,2013-07-30 20:23:00,
2013-07-30 15:28:00,90.1,76.3,29.91,SW,233,2.0,3.0,64,0.00,,---,0.81,VWS V14.00,2013-07-30 20:28:00,
2013-07-30 15:33:00,89.9,75.6,29.91,SW,233,0.0,1.0,63,0.00,,---,0.81,VWS V14.00,2013-07-30 20:33:00,
2013-07-30 15:37:00,90.0,77.1,29.91,SW,233,4.0,6.0,66,0.00,,---,0.81,VWS V14.00,2013-07-30 20:37:00,
2013-07-30 15:42:00,90.1,76.8,29.91,SW,233,1.0,2.0,65,0.00,,---,0.81,VWS V14.00,2013-07-30 20:42:00,
2013-07-30 15:47:00,90.4,76.6,29.91,SW,233,0.0,0.0,64,0.00,,---,0.81,VWS V14.00,2013-07-30 20:47:00,
2013-07-30 15:52:00,90.7,75.9,29.90,SW,233,1.0,1.0,62,0.00,,---,0.81,VWS V14.00,2013-07-30 20:52:00,
2013-07-30 15:57:00,90.9,76.1,29.90,SW,229,1.0,2.0,62,0.00,,---,0.81,VWS V14.00,2013-07-30 20:57:00,
2013-07-30 16:02:00,90.8,76.0,29.90,SW,229,1.0,2.0,62,0.00,,---,0.81,VWS V14.00,2013-07-30 21:02:00,
2013-07-30 16:07:00,90.4,75.6,29.90,SW,229,0.0,0.0,62,0.00,,---,0.81,VWS V14.00,2013-07-30 21:07:00,
2013-07-30 16:12:00,90.4,76.6,29.90,SW,229,0.0,0.0,64,0.00,,---,0.81,VWS V14.00,2013-07-30 21:12:00,
2013-07-30 16:17:00,90.5,76.2,29.90,SW,229,1.0,4.0,63,0.00,,---,0.81,VWS V14.00,2013-07-30 21:17:00,
2013-07-30 16:22:00,90.7,76.4,29.90,SW,228,5.0,6.0,63,0.00,,---,0.81,VWS V14.00,2013-07-30 21:22:00,
2013-07-30 16:27:00,90.9,76.1,29.90,SW,225,4.0,7.0,62,0.00,,---,0.81,VWS V14.00,2013-07-30 21:27:00,
2013-07-30 16:33:00,91.1,76.3,29.90,SW,216,4.0,8.0,62,0.00,,---,0.81,VWS V14.00,2013-07-30 21:33:00,
2013-07-30 16:37:00,91.2,76.4,29.90,SW,218,4.0,5.0,62,0.00,,---,0.81,VWS V14.00,2013-07-30 21:37:00,
2013-07-30 16:42:00,91.3,75.5,29.90,SW,218,1.0,2.0,60,0.00,,---,0.81,VWS V14.00,2013-07-30 21:42:00,
2013-07-30 16:47:00,91.3,76.9,29.90,SW,217,2.0,3.0,63,0.00,,---,0.81,VWS V14.00,2013-07-30 21:47:00,
2013-07-30 16:52:00,91.1,76.3,29.90,SW,217,3.0,5.0,62,0.00,,---,0.81,VWS V14.00,2013-07-30 21:52:00,
2013-07-30 16:57:00,90.7,75.4,29.90,SW,217,3.0,4.0,61,0.00,,---,0.81,VWS V14.00,2013-07-30 21:57:00,
2013-07-30 17:02:00,90.5,76.2,29.90,SW,217,2.0,4.0,63,0.00,,---,0.81,VWS V14.00,2013-07-30 22:02:00,
2013-07-30 17:07:00,90.5,76.7,29.90,SW,217,4.0,4.0,64,0.00,,---,0.81,VWS V14.00,2013-07-30 22:07:00,
2013-07-30 17:12:00,90.7,75.9,29.90,SW,217,2.0,4.0,62,0.00,,---,0.81,VWS V14.00,2013-07-30 22:12:00,
2013-07-30 17:18:00,91.0,76.7,29.90,SW,217,5.0,6.0,63,0.00,,---,0.81,VWS V14.00,2013-07-30 22:18:00,
2013-07-30 17:23:00,91.2,76.4,29.90,SW,215,5.0,5.0,62,0.00,,---,0.81,VWS V14.00,2013-07-30 22:23:00,
2013-07-30 17:28:00,91.2,78.3,29.90,SSE,159,5.0,9.0,66,0.00,,---,0.81,VWS V14.00,2013-07-30 22:28:00,
2013-07-30 17:33:00,91.0,78.5,29.90,SSE,157,5.0,5.0,67,0.00,,---,0.81,VWS V14.00,2013-07-30 22:33:00,
2013-07-30 17:38:00,90.5,78.1,29.90,SSE,153,4.0,8.0,67,0.00,,---,0.81,VWS V14.00,2013-07-30 22:38:00,
2013-07-30 17:43:00,89.8,77.4,29.90,SE,144,6.0,10.0,67,0.00,,---,0.81,VWS V14.00,2013-07-30 22:43:00,
2013-07-30 17:48:00,89.3,77.8,29.90,SE,144,4.0,5.0,69,0.00,,---,0.81,VWS V14.00,2013-07-30 22:48:00,
2013-07-30 17:53:00,89.1,78.0,29.90,SE,144,3.0,4.0,70,0.00,,---,0.81,VWS V14.00,2013-07-30 22:53:00,
2013-07-30 17:58:00,89.2,78.1,29.89,SE,144,5.0,5.0,70,0.00,,---,0.81,VWS V14.00,2013-07-30 22:58:00,
2013-07-30 18:03:00,89.5,78.0,29.88,SE,144,4.0,5.0,69,0.00,,---,0.81,VWS V14.00,2013-07-30 23:03:00,
2013-07-30 18:08:00,89.9,77.9,29.88,SE,144,6.0,7.0,68,0.00,,---,0.81,VWS V14.00,2013-07-30 23:08:00,
2013-07-30 18:13:00,90.0,78.0,29.89,SSE,161,5.0,5.0,68,0.00,,---,0.81,VWS V14.00,2013-07-30 23:13:00,
2013-07-30 18:18:00,90.0,78.0,29.88,SSE,159,5.0,6.0,68,0.00,,---,0.81,VWS V14.00,2013-07-30 23:18:00,
2013-07-30 18:23:00,90.0,78.0,29.88,SSE,159,2.0,3.0,68,0.00,,---,0.81,VWS V14.00,2013-07-30 23:23:00,
2013-07-30 18:28:00,89.9,78.4,29.88,SSE,158,3.0,5.0,69,0.00,,---,0.81,VWS V14.00,2013-07-30 23:28:00,
2013-07-30 18:33:00,89.6,77.6,29.88,SSE,158,2.0,4.0,68,0.00,,---,0.81,VWS V14.00,2013-07-30 23:33:00,
2013-07-30 18:38:00,89.2,77.7,29.88,SSE,157,6.0,6.0,69,0.00,,---,0.81,VWS V14.00,2013-07-30 23:38:00,
2013-07-30 18:43:00,88.8,77.8,29.88,SSE,157,4.0,5.0,70,0.00,,---,0.81,VWS V14.00,2013-07-30 23:43:00,
2013-07-30 18:48:00,88.3,77.7,29.88,SSE,157,4.0,6.0,71,0.00,,---,0.81,VWS V14.00,2013-07-30 23:48:00,
2013-07-30 18:53:00,87.9,77.8,29.88,SSE,157,4.0,5.0,72,0.00,,---,0.81,VWS V14.00,2013-07-30 23:53:00,
2013-07-30 18:58:00,87.5,77.8,29.89,SSE,156,4.0,4.0,73,0.00,,---,0.81,VWS V14.00,2013-07-30 23:58:00,
2013-07-30 19:03:00,87.1,77.8,29.89,SSE,156,0.0,0.0,74,0.00,,---,0.81,VWS V14.00,2013-07-31 00:03:00,
2013-07-30 19:08:00,86.1,76.4,29.89,East,86,4.0,7.0,73,0.00,,---,0.81,VWS V14.00,2013-07-31 00:08:00,
2013-07-30 19:13:00,84.8,76.0,29.89,East,80,4.0,5.0,75,0.00,,---,0.81,VWS V14.00,2013-07-31 00:13:00,
2013-07-30 19:18:00,83.6,76.0,29.89,ENE,57,4.0,11.0,78,0.00,,---,0.81,VWS V14.00,2013-07-31 00:18:00,
2013-07-30 19:23:00,82.4,76.0,29.89,NE,52,0.0,0.0,81,0.00,,---,0.81,VWS V14.00,2013-07-31 00:23:00,
2013-07-30 19:28:00,82.0,76.3,29.89,NE,56,0.0,0.0,83,0.00,,---,0.81,VWS V14.00,2013-07-31 00:28:00,
2013-07-30 19:33:00,80.8,74.8,29.90,NE,55,0.0,0.0,82,0.00,,---,0.81,VWS V14.00,2013-07-31 00:33:00,
2013-07-30 19:38:00,81.2,75.6,29.90,NNW,340,0.0,0.0,83,0.00,,---,0.81,VWS V14.00,2013-07-31 00:38:00,
2013-07-30 19:43:00,81.3,75.7,29.90,NNW,332,0.0,0.0,83,0.00,,---,0.81,VWS V14.00,2013-07-31 00:43:00,
2013-07-30 19:48:00,81.3,75.7,29.90,NNW,332,0.0,0.0,83,0.00,,---,0.81,VWS V14.00,2013-07-31 00:48:00,
2013-07-30 19:53:00,81.3,75.7,29.92,ESE,123,0.0,0.0,83,0.00,,---,0.81,VWS V14.00,2013-07-31 00:53:00,
2013-07-30 19:57:00,81.0,75.3,29.92,ESE,102,0.0,0.0,83,0.00,,---,0.81,VWS V14.00,2013-07-31 00:57:00,
2013-07-30 20:02:00,80.2,74.9,29.92,East,98,0.0,0.0,84,0.00,,---,0.81,VWS V14.00,2013-07-31 01:02:00,
2013-07-30 20:07:00,79.2,74.7,29.92,East,87,0.0,0.0,86,0.00,,---,0.82,VWS V14.00,2013-07-31 01:07:00,
2013-07-30 20:12:00,78.7,74.5,29.93,ESE,108,0.0,0.0,87,0.00,,---,0.82,VWS V14.00,2013-07-31 01:12:00,
2013-07-30 20:17:00,77.9,73.0,29.92,ESE,119,0.0,0.0,85,0.06,,---,0.83,VWS V14.00,2013-07-31 01:17:00,
2013-07-30 20:22:00,76.2,71.0,29.92,ESE,123,0.0,0.0,84,0.06,,---,0.83,VWS V14.00,2013-07-31 01:22:00,
2013-07-30 20:27:00,75.9,71.8,29.92,SE,130,0.0,0.0,87,0.04,,---,0.83,VWS V14.00,2013-07-31 01:27:00,
2013-07-30 20:32:00,76.3,72.8,29.92,SSE,163,0.0,0.0,89,0.00,,---,0.83,VWS V14.00,2013-07-31 01:32:00,
2013-07-30 20:37:00,76.5,73.0,29.91,SE,129,0.0,0.0,89,0.00,,---,0.83,VWS V14.00,2013-07-31 01:37:00,
2013-07-30 20:42:00,76.6,73.1,29.91,SE,136,0.0,0.0,89,0.00,,---,0.83,VWS V14.00,2013-07-31 01:42:00,
2013-07-30 20:47:00,76.8,73.3,29.91,SE,138,0.0,0.0,89,0.00,,---,0.83,VWS V14.00,2013-07-31 01:47:00,
2013-07-30 20:52:00,77.0,73.5,29.91,SE,139,0.0,0.0,89,0.00,,---,0.83,VWS V14.00,2013-07-31 01:52:00,
2013-07-30 20:57:00,77.2,73.7,29.90,SSE,148,0.0,0.0,89,0.00,,---,0.83,VWS V14.00,2013-07-31 01:57:00,
2013-07-30 21:02:00,77.4,73.9,29.91,SSE,156,0.0,0.0,89,0.00,,---,0.83,VWS V14.00,2013-07-31 02:02:00,
2013-07-30 21:07:00,77.4,73.9,29.91,SSE,158,0.0,0.0,89,0.00,,---,0.83,VWS V14.00,2013-07-31 02:07:00,
2013-07-30 21:12:00,77.4,73.9,29.91,SSE,165,0.0,0.0,89,0.00,,---,0.83,VWS V14.00,2013-07-31 02:12:00,
2013-07-30 21:17:00,77.4,73.9,29.91,SSE,165,0.0,0.0,89,0.00,,---,0.83,VWS V14.00,2013-07-31 02:17:00,
2013-07-30 21:22:00,77.3,73.8,29.91,SSE,165,0.0,0.0,89,0.00,,---,0.83,VWS V14.00,2013-07-31 02:22:00,
2013-07-30 21:27:00,77.3,73.8,29.92,SSE,165,0.0,0.0,89,0.00,,---,0.83,VWS V14.00,2013-07-31 02:27:00,
2013-07-30 21:32:00,77.4,74.2,29.93,SSE,165,0.0,0.0,90,0.00,,---,0.83,VWS V14.00,2013-07-31 02:32:00,
2013-07-30 21:37:00,76.9,73.4,29.93,East,93,5.0,8.0,89,0.00,,---,0.83,VWS V14.00,2013-07-31 02:37:00,
2013-07-30 21:42:00,76.5,73.3,29.93,East,92,4.0,4.0,90,0.00,,---,0.83,VWS V14.00,2013-07-31 02:42:00,
2013-07-30 21:47:00,76.5,73.3,29.93,East,92,3.0,4.0,90,0.00,,---,0.83,VWS V14.00,2013-07-31 02:47:00,
2013-07-30 21:52:00,76.6,73.4,29.93,East,92,0.0,0.0,90,0.00,,---,0.83,VWS V14.00,2013-07-31 02:52:00,
2013-07-30 21:57:00,76.6,73.4,29.94,East,92,0.0,0.0,90,0.00,,---,0.83,VWS V14.00,2013-07-31 02:57:00,
2013-07-30 22:02:00,76.7,73.9,29.93,East,92,0.0,0.0,91,0.00,,---,0.83,VWS V14.00,2013-07-31 03:02:00,
2013-07-30 22:07:00,76.8,74.0,29.94,East,92,0.0,0.0,91,0.00,,---,0.83,VWS V14.00,2013-07-31 03:07:00,
2013-07-30 22:12:00,76.9,74.1,29.94,East,92,0.0,0.0,91,0.00,,---,0.83,VWS V14.00,2013-07-31 03:12:00,
2013-07-30 22:17:00,76.9,74.1,29.94,East,92,0.0,0.0,91,0.00,,---,0.83,VWS V14.00,2013-07-31 03:17:00,
2013-07-30 22:22:00,76.9,74.1,29.93,East,92,0.0,0.0,91,0.00,,---,0.83,VWS V14.00,2013-07-31 03:22:00,
2013-07-30 22:27:00,76.9,74.1,29.93,East,92,0.0,0.0,91,0.00,,---,0.83,VWS V14.00,2013-07-31 03:27:00,
2013-07-30 22:32:00,76.9,74.1,29.93,East,92,0.0,0.0,91,0.00,,---,0.83,VWS V14.00,2013-07-31 03:32:00,
2013-07-30 22:37:00,76.8,74.0,29.93,East,92,0.0,0.0,91,0.00,,---,0.83,VWS V14.00,2013-07-31 03:37:00,
2013-07-30 22:42:00,76.7,73.9,29.93,East,92,0.0,0.0,91,0.00,,---,0.83,VWS V14.00,2013-07-31 03:42:00,
2013-07-30 22:47:00,76.7,73.9,29.93,East,92,0.0,0.0,91,0.00,,---,0.83,VWS V14.00,2013-07-31 03:47:00,
2013-07-30 22:52:00,76.6,73.8,29.94,East,92,3.0,4.0,91,0.00,,---,0.83,VWS V14.00,2013-07-31 03:52:00,
2013-07-30 22:57:00,76.6,73.8,29.94,East,92,2.0,2.0,91,0.00,,---,0.83,VWS V14.00,2013-07-31 03:57:00,
2013-07-30 23:01:00,76.6,73.8,29.93,East,92,5.0,6.0,91,0.00,,---,0.83,VWS V14.00,2013-07-31 04:01:00,
2013-07-30 23:06:00,76.6,73.8,29.93,East,92,0.0,4.0,91,0.00,,---,0.83,VWS V14.00,2013-07-31 04:06:00,
2013-07-30 23:11:00,76.6,73.8,29.94,East,92,1.0,3.0,91,0.00,,---,0.83,VWS V14.00,2013-07-31 04:11:00,
2013-07-30 23:16:00,76.7,73.9,29.94,East,92,4.0,5.0,91,0.00,,---,0.83,VWS V14.00,2013-07-31 04:16:00,
2013-07-30 23:21:00,76.6,73.8,29.94,East,92,0.0,4.0,91,0.00,,---,0.83,VWS V14.00,2013-07-31 04:21:00,
2013-07-30 23:26:00,76.6,74.1,29.93,East,92,0.0,0.0,92,0.00,,---,0.83,VWS V14.00,2013-07-31 04:26:00,
2013-07-30 23:31:00,76.6,74.1,29.93,East,92,0.0,0.0,92,0.00,,---,0.83,VWS V14.00,2013-07-31 04:31:00,
2013-07-30 23:36:00,76.6,74.1,29.94,East,92,0.0,0.0,92,0.00,,---,0.83,VWS V14.00,2013-07-31 04:36:00,
2013-07-30 23:41:00,76.6,74.1,29.94,East,92,1.0,3.0,92,0.00,,---,0.83,VWS V14.00,2013-07-31 04:41:00,
2013-07-30 23:46:00,76.6,74.1,29.94,East,92,0.0,3.0,92,0.00,,---,0.83,VWS V14.00,2013-07-31 04:46:00,
2013-07-30 23:51:00,76.6,74.1,29.94,East,92,0.0,0.0,92,0.00,,---,0.83,VWS V14.00,2013-07-31 04:51:00,
2013-07-30 23:56:00,76.6,74.1,29.94,East,92,0.0,0.0,92,0.00,,---,0.83,VWS V14.00,2013-07-31 04:56:00,